Regional Weather Roundup
Issued by NWS Northern Indiana

Home | Current Version | Previous Version | Graphics & Text | Print | Product List | Glossary On
Versions: 1 2 3 4 5 6 7 8 9 10 11 12 13 14 15 16 17 18 19 20 21 22 23 24 25 26 27 28 29 30 31 32 33 34 35 36 37 38 39 40 41 42 43 44 45 46 47 48 49 50
000
ASUS43 KIWX 261500
RWRIWX

KIWX WEATHER ROUNDUP
NATIONAL WEATHER SERVICE NORTHERN INDIANA
1100 AM EDT THU MAY 26 2016

NOTE: "FAIR" INDICATES FEW OR NO CLOUDS BELOW 12,000 FEET WITH NO
SIGNIFICANT WEATHER AND/OR OBSTRUCTIONS TO VISIBILITY.

* THESE STATIONS ARE NOT UNDER NWS QUALITY CONTROL. THEY ALSO MAY NOT
  REPORT WEATHER SUCH AS PRECIPITATION OR FOG.

INZ001>027-261600-
NORTHERN INDIANA

CITY           SKY/WX    TMP DP  RH WIND       PRES   REMARKS
GARY*          CLOUDY    75  73  94 SW6       29.94F
VALPARAISO     CLOUDY    74  66  76 SW14      29.97R
SOUTH BEND     MOSUNNY   76  66  71 S9        29.96F
ELKHART*       CLOUDY    75  70  83 SW7       29.97F
GOSHEN         PTSUNNY   75  65  70 W8        29.97F
ANGOLA*        PTSUNNY   75  70  83 SW8       29.99S
FORT WAYNE     PTSUNNY   77  65  66 S9        29.99F

$$
INZ028>050-261600-
CENTRAL INDIANA

CITY           SKY/WX    TMP DP  RH WIND       PRES   REMARKS
LAFAYETTE      CLOUDY    71  66  84 SW6       30.00R
KOKOMO*        CLOUDY    73  64  73 SW13      30.01R
MUNCIE*        CLOUDY    74  64  71 S9        30.02S
INDIANAPOLIS   NOT AVBL

$$
MIZ043>046-050>051-056>058-064>065-071>073-077>080-261600-
SOUTHWEST LOWER MICHIGAN

CITY           SKY/WX    TMP DP  RH WIND       PRES   REMARKS
BATTLE CREEK   CLOUDY    74  67  78 SW14      29.98S
BENTON HARBOR  PTSUNNY   76  67  73 SW6       29.94F
COLDWATER*     CLOUDY    75  65  71 SW10      29.99S
HILLSDALE*     CLOUDY    75  62  63 SW9       30.00R
HOLLAND        CLOUDY    75  67  76 SW15      29.95S
GRAND RAPIDS   PTSUNNY   78  68  71 SW10      29.95S
KALAMAZOO      CLOUDY    75  66  73 SW10      29.97S
STURGIS*       CLOUDY    74  65  74 SW9       29.98S
THREE RIVERS*  CLOUDY    74  66  75 SW9       29.98S

$$
OHZ001>008-015>018-024>025-261600-
NORTHWEST OHIO

CITY           SKY/WX    TMP DP  RH WIND       PRES   REMARKS
DEFIANCE       MOSUNNY   77  64  64 SW8       30.00R
FINDLAY        MOSUNNY   77  63  61 SW10G17   30.01S
TOLEDO EXPRESS PTSUNNY   76  64  66 SW13      29.99R
TOLEDO METCALF PTSUNNY   77  63  61 SW14      30.01R
LIMA           PTSUNNY   74  64  71 SW9       30.02F

$$
AND FOR LAKE MICHIGAN COASTAL AND OPEN LAKE BUOY OBSERVATIONS

STATION/POSITION TEMP    WIND        PRES    VSBY  WAVE
                 AIR SEA DIR/SP/G                  HT/PER
                 (F)     (DEG/KT/KT) (MB)    (MI)  (FT/S)
CALUMET HARBOR    72     200/  9/ 12 1013.2R
MICHIGAN CITY     72     170/ 10/ 12   N/A
BURNS HARBOR      72     210/ 12/ 15 1014.2S
SAINT JOSEPH      71     180/  8/ 15 1015.2R
SOUTH LAKE BUOY   54 49  170/ 14/ 14 1012.9          1/ 3
4 MI NW BRIDGMAN  63 59  200/  6/  8   N/A           1
MICHIGAN CITY     65 57  200/  6/  8   N/A           1

$$
&&




USA.gov is the U.S. government's official web portal to all federal, state and local government web resources and services.